Content
SEND FEEDBACK

Daily
Averages
Monthly
Summary
United States of America

INARAJAN, GUAM


Home > North America > United States > Guam
Elevation: 280 feet     Latitude: 13 18N     Longitude: 144 44E

WEATHER
 
SELECT A DAY
Number of Records: 351,545;   Date Range: 1/1/95 - 10/19/14
 
SHARE

PRINT THIS DATA

[ ← Previous Day ]
WEATHER ALMANAC - JANUARY 16, 2014
[ Next Day → ]
[ °C ]   °F
Weather ElementAverageHighLow
Temperature79.3 °F82.4 °F (10:18 am)75.2 °F (6:11 pm)
Dewpoint74.8 °F77 °F (5:50 pm)71.1 °F (2:58 am)
Humidity86.5 %100 % (5:50 pm)78 % (12:58 pm)
Barometer29.83 in29.89 in (10:13 am)29.76 in (2:58 pm)
Wind Speed6.5 mph10.4 mph (9:58 am)
Weather ElementAverage
Visibility9.9 mi
Wind DirectionE (86.2 °)

Weather ElementTotal
Precipitation---
Cooling Degree Days13.8 (Base 65)
Growing Degree Days28.8 (Base 50)
Averaged from 55 records on January 16, 2014
WEATHER CONDITIONS BREAKOUT
WIND DIRECTION BREAKOUT
WEATHER BY HOUR - JANUARY 16, 2014
[ °C ]   °F
Local TimeTemperatureDewpointHumidityBarometerVisibilityWind DirectionWind SpeedGust SpeedPrecipitationEventsConditions
1:58 AM78.3 °F71.2 °F79 %29.83 in10.0 miESE (120°)8.1 mphClear
2:58 AM78.1 °F71.1 °F79 %29.83 in10.0 miESE (110°)6.9 mphClear
3:58 AM77.7 °F72.1 °F83 %29.82 in10.0 miESE (120°)4.6 mphPartly Cloudy
4:58 AM77.4 °F72.7 °F85 %29.83 in10.0 miESE (110°)4.6 mphClear
5:58 AM77.4 °F73.8 °F89 %29.83 in10.0 miEast (90°)5.8 mphScattered Clouds
6:58 AM76.8 °F73.4 °F89 %29.86 in10.0 miCalmPartly Cloudy
7:58 AM78.6 °F74.3 °F87 %29.87 in10.0 miCalmScattered Clouds
8:58 AM80.2 °F73.4 °F80 %29.87 in10.0 miEast (100°)6.9 mphPartly Cloudy
9:58 AM81.7 °F75.0 °F80 %29.86 in10.0 miEast (90°)10.4 mphScattered Clouds
10:13 AM80.6 °F75.2 °F84 %29.89 in10.0 miEast (100°)6.9 mphScattered Clouds
10:18 AM82.4 °F75.2 °F79 %29.89 in10.0 miESE (110°)8.1 mphMostly Cloudy
10:48 AM82.4 °F75.2 °F79 %29.88 in10.0 miEast (100°)8.1 mphScattered Clouds
10:58 AM82.4 °F75.2 °F79 %29.86 in10.0 miEast (90°)10.4 mphMostly Cloudy
11:03 AM82.4 °F75.2 °F79 %29.88 in10.0 miESE (110°)6.9 mphScattered Clouds
11:18 AM82.4 °F75.2 °F79 %29.87 in10.0 miEast (90°)9.2 mphMostly Cloudy
11:48 AM82.4 °F75.2 °F79 %29.85 in10.0 miEast (90°)9.2 mphScattered Clouds
11:58 AM81.9 °F74.7 °F79 %29.81 in10.0 miEast (100°)8.1 mphScattered Clouds
12:58 PM82.2 °F74.8 °F78 %29.78 in10.0 miEast (100°)9.2 mphScattered Clouds
1:33 PM82.4 °F75.2 °F79 %29.80 in10.0 miEast (90°)10.4 mphMostly Cloudy
1:43 PM80.6 °F73.4 °F79 %29.80 in10.0 miESE (120°)8.1 mphScattered Clouds
1:48 PM80.6 °F75.2 °F84 %29.80 in10.0 miEast (100°)6.9 mphMostly Cloudy
1:58 PM82.4 °F75.2 °F79 %29.77 in10.0 miESE (120°)8.1 mphMostly Cloudy
2:03 PM82.4 °F75.2 °F79 %29.80 in10.0 miEast (100°)3.5 mphScattered Clouds
2:13 PM82.4 °F75.2 °F79 %29.79 in10.0 miEast (100°)5.8 mphMostly Cloudy
2:23 PM82.4 °F75.2 °F79 %29.79 in10.0 miEast (90°)9.2 mphMostly Cloudy
2:28 PM80.6 °F73.4 °F79 %29.79 in10.0 miEast (90°)9.2 mphMostly Cloudy
2:43 PM80.6 °F73.4 °F79 %29.79 in10.0 miESE (110°)6.9 mphScattered Clouds
2:58 PM81.3 °F74.7 °F80 %29.76 in9.0 miEast (90°)6.9 mphScattered Clouds
3:58 PM81.5 °F75.4 °F82 %29.76 in10.0 miEast (90°)6.9 mphPartly Cloudy
4:15 PM82.4 °F75.2 °F79 %29.80 in10.0 miEast (80°)5.8 mphLight Drizzle
4:25 PM78.8 °F75.2 °F89 %29.80 in10.0 miEast (80°)8.1 mphLight Drizzle
4:27 PM78.8 °F75.2 °F89 %29.80 in10.0 miEast (80°)6.9 mphMostly Cloudy
4:37 PM78.8 °F73.4 °F83 %29.80 in10.0 miEast (80°)8.1 mphMostly Cloudy
4:58 PM79.3 °F74.3 °F84 %29.78 in10.0 miENE (70°)4.6 mph0.00 inPartly Cloudy
5:23 PM78.8 °F73.4 °F83 %29.81 in10.0 miEast (80°)4.6 mphMostly Cloudy
5:33 PM78.8 °F75.2 °F89 %29.82 in10.0 miEast (90°)8.1 mphMostly Cloudy
5:35 PM78.8 °F75.2 °F89 %29.82 in10.0 miEast (80°)9.2 mphRainLight Rain
5:50 PM77.0 °F77.0 °F100 %29.82 in9.0 miESE (110°)4.6 mphRainLight Rain
5:51 PM77.0 °F75.2 °F94 %29.82 in10.0 miESE (110°)4.6 mphMostly Cloudy
5:58 PM76.8 °F75.4 °F95 %29.79 in10.0 miEast (80°)5.8 mph0.00 inMostly Cloudy
6:06 PM77.0 °F75.2 °F94 %29.82 in9.0 miENE (60°)5.8 mphRainLight Rain
6:11 PM75.2 °F75.2 °F100 %29.83 in9.0 miNE (50°)8.1 mphRainLight Rain
6:20 PM77.0 °F77.0 °F100 %29.83 in10.0 miEast (80°)4.6 mphScattered Clouds
6:58 PM77.7 °F76.6 °F96 %29.81 in10.0 miNE (40°)3.5 mph0.00 inMostly Cloudy
7:58 PM77.5 °F75.7 °F94 %29.84 in10.0 miEast (90°)4.6 mphPartly Cloudy
8:58 PM77.4 °F75.9 °F95 %29.86 in10.0 miEast (90°)5.8 mphScattered Clouds
9:13 PM77.0 °F77.0 °F100 %29.88 in10.0 miEast (90°)5.8 mphMostly Cloudy
9:23 PM77.0 °F75.2 °F94 %29.88 in10.0 miEast (80°)5.8 mphScattered Clouds
9:58 PM77.4 °F75.6 °F94 %29.86 in10.0 miEast (80°)5.8 mphScattered Clouds
10:13 PM77.0 °F75.2 °F94 %29.89 in10.0 miENE (70°)4.6 mphMostly Cloudy
10:23 PM77.0 °F77.0 °F100 %29.89 in10.0 miEast (80°)6.9 mphMostly Cloudy
10:43 PM77.0 °F75.2 °F94 %29.88 in10.0 miENE (70°)6.9 mphMostly Cloudy
10:53 PM77.0 °F75.2 °F94 %29.88 in10.0 miENE (70°)5.8 mphMostly Cloudy
10:58 PM76.8 °F75.0 °F94 %29.86 in10.0 miENE (60°)5.8 mphPartly Cloudy
11:58 PM76.6 °F75.4 °F96 %29.84 in10.0 miENE (60°)4.6 mphMostly Cloudy
Hourly data recorded from PGUA, located miles away from Inarajan, Guam







STORIES FROM OUR PARTNERS